Location: Newark
(36.6843°N, 3.3697°E)
Time: 01:57:24
(UTC+00:00)

N. Korean satellite - Visible Passes

Search period start: 09 December 2019 00:00
Search period end: 19 December 2019 00:00
Orbit: 456 x 506 km, 97.2° (Epoch: 07 December)

Date Brightness Start Highest point End Pass type
(mag) Time Alt. Az. Time Alt. Az. Time Alt. Az.
09 Dec 6.8 05:30:03 10° NNE 05:33:35 70° E 05:37:01 10° S visible
09 Dec 9.3 17:36:35 10° SSW 17:39:37 23° W 17:42:38 10° NW visible
10 Dec 8.6 05:04:59 10° NE 05:08:05 29° E 05:11:09 10° SSE visible
10 Dec 7.6 17:10:30 10° S 17:14:07 52° W 17:17:44 10° NNW visible
11 Dec 9.9 04:40:43 10° ENE 04:42:31 13° E 04:44:18 10° SE visible
11 Dec 7.4 06:12:56 10° NNW 06:15:56 27° WNW 06:18:54 10° SW visible
12 Dec 6.4 05:47:09 10° N 05:50:37 63° WNW 05:54:01 10° SSW visible
12 Dec 9.9 17:54:43 10° SW 17:56:47 14° W 17:58:51 10° WNW visible
13 Dec 7.3 05:21:46 10° NNE 05:25:11 52° E 05:28:33 10° S visible
13 Dec 8.8 17:27:57 10° SSW 17:31:14 30° W 17:34:31 10° NW visible
14 Dec 9.1 04:56:52 10° NE 04:59:40 22° E 05:02:26 10° SSE visible
14 Dec 7.1 17:02:05 10° S 17:05:45 68° WSW 17:09:25 10° NNW visible
15 Dec 10.1 04:33:34 10° E 04:34:03 10° E 04:34:32 10° E visible
15 Dec 7.1 06:04:24 10° N 06:07:35 34° WNW 06:10:44 10° SW visible
16 Dec 6.3 05:38:44 10° N 05:42:13 84° WNW 05:45:38 10° SSW visible
16 Dec 9.8 17:45:47 10° SW 17:48:22 18° W 17:50:56 10° NW visible
17 Dec 7.9 05:13:29 10° NNE 05:16:45 38° E 05:19:58 10° SSE visible
17 Dec 8.3 17:19:23 10° SSW 17:22:50 38° W 17:26:16 10° NNW visible
18 Dec 9.5 04:48:49 10° NE 04:51:12 17° E 04:53:33 10° SE visible
18 Dec 7.8 06:21:52 10° NNW 06:24:30 20° WNW 06:27:06 10° WSW visible
